Cape Byron Observation History
Time Wind Speed Temp Pressure Rel. Hum Rain
22/07:00am WNW 4-5 kts 19.4°c 1015.2 hPa 74% 0.0mm
22/06:30am CALM 0 kts 19.4°c 1014.8 hPa 73% 0.0mm
22/06:00am CALM 0 kts 19.3°c 1014.5 hPa 73% 0.0mm
22/05:30am CALM 0 kts 19.2°c 1014.3 hPa 74% 0.0mm
22/05:00am NW 3 kts 19.0°c 1014.1 hPa 76% 0.0mm
22/04:30am NW 4 kts 19.0°c 1014.3 hPa 76% 0.0mm
22/04:00am NW 5-6 kts 18.7°c 1014.3 hPa 76% 0.0mm
22/03:30am NW 4-6 kts 18.8°c 1014.4 hPa 77% 0.0mm
22/03:00am NW 5 kts 18.5°c 1014.6 hPa 78% 0.0mm
22/02:30am NW 5-7 kts 18.4°c 1015.1 hPa 78% 0.0mm
22/02:00am NW 5-6 kts 18.3°c 1015.7 hPa 79% 0.0mm
22/01:30am WNW 5-6 kts 18.3°c 1016.0 hPa 81% 0.0mm
22/01:00am NW 5-6 kts 18.5°c 1016.2 hPa 77% 0.0mm
22/12:30am NW 5-6 kts 18.6°c 1016.5 hPa 75% 0.0mm
22/12:00am WNW 5-6 kts 18.7°c 1016.8 hPa 75% 0.0mm
Time Wind Speed Temp Pressure Rel. Hum Rain
21/11:30pm W 4-7 kts 19.6°c 1016.8 hPa 75% 0.0mm
21/11:00pm NNE 8-11 kts 20.6°c 1016.7 hPa 71% 0.0mm
21/10:30pm N 9-12 kts 20.6°c 1016.9 hPa 70% 0.0mm
21/10:00pm NE 11-13 kts 20.4°c 1016.7 hPa 71% 0.0mm
21/09:30pm NE 9-12 kts 20.5°c 1016.8 hPa 69% 0.0mm
21/09:00pm NE 12-14 kts 20.1°c 1016.3 hPa 71% 0.0mm
21/08:30pm ENE 11-14 kts 19.8°c 1015.6 hPa 72% 0.0mm
21/08:00pm NE 10-13 kts 19.8°c 1015.7 hPa 70% 0.0mm
21/07:30pm ENE 9-13 kts 19.8°c 1015.5 hPa 70% 0.0mm
21/07:00pm NE 11-13 kts 20.2°c 1015.5 hPa 66% 0.0mm
21/06:30pm NE 11-13 kts 21.5°c 1015.3 hPa 60% 0.0mm
21/06:00pm NE 9-12 kts 21.4°c 1015.5 hPa 61% 0.0mm
21/05:30pm ENE 5-9 kts 21.8°c 1015.4 hPa 66% 0.0mm
21/05:00pm E 5-8 kts 21.8°c 1015.0 hPa 64% 0.0mm
21/04:30pm ENE 7-9 kts 21.9°c 1015.0 hPa 63% 0.0mm
21/04:00pm E 9-11 kts 23.7°c 1015.3 hPa 57% 0.0mm
21/03:30pm E 10-13 kts 23.6°c 1015.4 hPa 55% 0.0mm
21/03:00pm E 12-14 kts 23.4°c 1015.4 hPa 56% 0.0mm
21/02:30pm E 12-14 kts 21.8°c 1015.6 hPa 59% 0.0mm
21/02:00pm E 13-15 kts 24.0°c 1015.7 hPa 56% 0.0mm
21/01:30pm E 13-15 kts 22.5°c 1016.1 hPa 57% 0.0mm
21/01:00pm E 13-16 kts 22.9°c 1016.5 hPa 58% 0.0mm
21/12:30pm ESE 12-15 kts 22.3°c 1016.8 hPa 57% 0.0mm
21/12:00pm SE 12-16 kts 22.2°c 1017.2 hPa 57% 0.0mm
21/11:30am SE 10-14 kts 22.4°c 1017.8 hPa 58% 0.0mm
21/11:00am SE 9-13 kts 22.3°c 1017.9 hPa 58% 0.0mm
21/10:30am S 9-11 kts 21.7°c 1018.2 hPa 60% 0.0mm
21/10:00am SSE 8-10 kts 21.0°c 1018.4 hPa 60% 0.0mm
21/09:30am SSW 8-11 kts 21.0°c 1018.4 hPa 59% 0.0mm
21/09:00am SW 9-13 kts 19.7°c 1018.1 hPa 60% 0.0mm
21/08:30am SW 10-13 kts 18.8°c 1018.0 hPa 67% 0.0mm
21/08:00am SW 11-15 kts 17.7°c 1017.7 hPa 70% 0.0mm
21/07:30am WSW 12-15 kts 16.8°c 1017.6 hPa 74% 0.0mm
21/07:00am SW 13-17 kts 15.9°c 1017.2 hPa 78% 0.0mm
21/06:30am WSW 14-18 kts 15.6°c 1017.0 hPa 78% 0.0mm
21/06:00am WSW 14-17 kts 15.6°c 1016.7 hPa 78% 0.0mm
21/05:30am SW 13-17 kts 15.6°c 1016.4 hPa 78% 0.0mm
21/05:00am WSW 14-17 kts 15.9°c 1016.3 hPa 77% 0.0mm
21/04:30am WSW 14-17 kts 16.1°c 1016.2 hPa 76% 0.0mm
21/04:00am SW 13-15 kts 16.2°c 1016.1 hPa 76% 0.0mm
21/03:30am SW 12-14 kts 16.1°c 1016.1 hPa 76% 0.0mm
21/03:00am SW 11-13 kts 16.2°c 1016.1 hPa 76% 0.0mm
21/02:30am SW 11-13 kts 16.6°c 1016.4 hPa 75% 0.0mm
21/02:00am SW 9-11 kts 16.9°c 1016.6 hPa 75% 0.0mm
21/01:30am SSW 9-11 kts 17.0°c 1016.8 hPa 74% 0.0mm
21/01:00am SSW 9-11 kts 16.9°c 1017.0 hPa 75% 0.0mm
21/12:30am SSW 8-10 kts 17.0°c 1017.4 hPa 74% 0.0mm
21/12:00am SSW 9-11 kts 17.0°c 1017.6 hPa 72% 0.0mm
Time Wind Speed Temp Pressure Rel. Hum Rain
20/11:30pm SSW 8-11 kts 17.4°c 1017.9 hPa 70% 0.0mm
20/11:00pm SSW 9-11 kts 17.4°c 1017.9 hPa 70% 0.0mm
20/10:30pm SE 7-11 kts 18.6°c 1018.2 hPa 69% 0.0mm
20/10:00pm SE 9-14 kts 19.3°c 1018.4 hPa 65% 0.0mm
20/09:30pm SE 9-13 kts 19.3°c 1018.3 hPa 63% 0.0mm
20/09:00pm SE 9-13 kts 19.3°c 1018.1 hPa 65% 0.0mm
20/08:30pm ESE 12-15 kts 19.4°c 1017.9 hPa 66% 0.0mm
20/08:00pm SE 12-16 kts 19.4°c 1017.7 hPa 65% 0.0mm
20/07:30pm SE 11-16 kts 19.5°c 1017.3 hPa 63% 0.0mm
20/07:00pm SE 13-18 kts 19.7°c 1017.0 hPa 62% 0.0mm
20/06:30pm SE 14-19 kts 20.1°c 1016.7 hPa 63% 0.0mm
20/06:00pm SE 15-19 kts 20.5°c 1016.6 hPa 64% 0.0mm
20/05:30pm SE 13-17 kts 21.1°c 1016.4 hPa 59% 0.0mm
20/05:00pm SE 13-18 kts 21.3°c 1016.3 hPa 62% 0.0mm
20/04:30pm SSE 15-19 kts 21.3°c 1016.5 hPa 57% 0.0mm
20/04:00pm S 16-21 kts 20.9°c 1016.6 hPa 55% 0.0mm
20/03:30pm SSE 15-19 kts 21.7°c 1016.8 hPa 57% 0.0mm
20/03:00pm SSE 16-21 kts 21.4°c 1016.7 hPa 58% 0.0mm
20/02:30pm SSE 16-20 kts 21.3°c 1016.8 hPa 58% 0.0mm
20/02:00pm S 17-21 kts 21.5°c 1017.1 hPa 59% 0.0mm
20/01:30pm S 17-19 kts 21.3°c 1017.4 hPa 61% 0.0mm
20/01:00pm S 19-22 kts 20.9°c 1017.6 hPa 63% 0.0mm
20/12:30pm SSW 18-21 kts 21.2°c 1017.7 hPa 66% 0.0mm
20/12:00pm S 19-23 kts 20.9°c 1017.8 hPa 66% 0.0mm
20/11:30am SSW 19-23 kts 21.0°c 1018.0 hPa 68% 0.0mm
20/11:00am SSW 19-23 kts 20.5°c 1018.1 hPa 70% 0.0mm
20/10:30am SSW 18-22 kts 20.6°c 1018.1 hPa 70% 0.0mm
20/10:00am SSW 18-22 kts 20.3°c 1017.9 hPa 70% 0.0mm
20/09:30am SSW 15-20 kts 20.1°c 1017.9 hPa 73% 0.0mm
20/09:00am SSW 14-20 kts 19.3°c 1017.8 hPa 75% 0.0mm
20/08:30am SW 14-19 kts 18.6°c 1017.6 hPa 78% 0.0mm
20/08:00am SW 13-19 kts 17.7°c 1017.2 hPa 88% 0.0mm
20/07:30am SW 14-20 kts 16.9°c 1016.9 hPa 99% 0.0mm
20/07:00am SW 16-23 kts 16.3°c 1016.3 hPa 100% 0.0mm
20/06:30am SW 19-23 kts 16.4°c 1016.0 hPa 100% 0.0mm
20/06:00am SW 16-21 kts 16.3°c 1015.7 hPa 100% 0.0mm
20/05:30am SW 15-20 kts 16.1°c 1015.5 hPa 100% 0.0mm
20/05:00am SW 15-19 kts 16.0°c 1015.0 hPa 100% 0.0mm
20/04:30am SW 15-19 kts 16.2°c 1014.9 hPa n/a 0.0mm
20/04:00am SW 15-20 kts 16.1°c 1014.8 hPa n/a 0.0mm
20/03:30am SW 15-18 kts 16.3°c 1015.1 hPa n/a 0.0mm
20/03:00am SW 15-19 kts 16.5°c 1015.2 hPa 100% 0.0mm
20/02:30am SW 15-18 kts 16.7°c 1015.4 hPa 100% 0.0mm
20/02:00am SW 13-16 kts 17.0°c 1015.7 hPa n/a 0.0mm
20/01:30am SW 12-15 kts 17.7°c 1015.8 hPa 100% 0.0mm
20/01:00am SSW 14-19 kts 18.1°c 1015.9 hPa 100% 0.0mm
20/12:30am SSW 14-19 kts 18.1°c 1016.3 hPa 100% 0.0mm
20/12:00am SSW 20-27 kts 18.0°c 1016.3 hPa 100% 0.0mm